Regional Weather Roundup
Issued by NWS

Home | Current Version | Previous Version | Text Only | Print | Product List | Glossary On
Versions: 1 2 3 4 5 6 7 8 9 10 11 12 13 14 15 16 17 18 19 20 21 22 23 24 25 26 27 28 29 30 31 32 33 34 35 36 37 38 39 40 41 42 43 44 45 46 47 48 49 50
000
ASMX46 KSGX 210503
RWRMX

MEXICAN WEATHER ROUNDUP
NATIONAL WEATHER SERVICE SAN DIEGO CA
1000 PM PDT WED AUG 20 2014

BAJA CALIFORNIA

CITY           SKY/WX    TMP DP  RH WIND       PRES   REMARKS
ENSENADA NW      N/A     70  32  24 CALM      29.90S
LA PAZ         PTCLDY    81  72  74 CALM      29.93
MEXICALI       PTCLDY    91  50  24 E6        29.78
S.J. DEL CABO    N/A    N/A N/A N/A MISG        N/A
TIJUANA        CLEAR     68  59  73 W6        29.96R

NORTHWESTERN MEXICO

CITY           SKY/WX    TMP DP  RH WIND       PRES   REMARKS
CHIHUAHUA      MOCLDY    75  55  50 SE6       30.11
CULIACAN       RAIN      81  79  94 CALM      29.91
LOS MOCHIS       N/A    N/A N/A N/A MISG        N/A

NORTHEASTERN MEXICO

CITY           SKY/WX    TMP DP  RH WIND       PRES   REMARKS
MONTERREY      PTCLDY    86  68  54 SE16      29.93S
REYNOSA        PTCLDY    82  73  74 S14       29.98
SALTILLO       PTCLDY    72  63  73 CALM      30.16S
TORREON        MOCLDY    75  63  64 W5        30.06R
VICTORIA       CLEAR     81  72  74 SE10      30.03

WESTERN MEXICO

CITY           SKY/WX    TMP DP  RH WIND       PRES   REMARKS
AGUASCALIENTES MOCLDY    57  52  82 SE13      30.34
DURANGO        MOCLDY    64  57  77 S3        30.25R
GUADALAJARA    MOCLDY    66  59  77 NE5       30.21
MAZATLAN       MOCLDY    75  73  94 NW8       29.89R
PTO. VALLARTA  CLOUDY    81  73  78 N6        29.90R

CENTRAL MEXICO

CITY           SKY/WX    TMP DP  RH WIND       PRES   REMARKS
LEON           LGT RAIN  59  57  94 E7        30.38R
MEXICO CITY    MOCLDY    63  52  67 W10       30.37R
MORELIA        CLOUDY    57  55  94 CALM      30.31
QUERETARO      MOCLDY    64  59  82 W6        30.36R
S. LUIS POTOSI PTCLDY    63  57  82 CALM      30.31R
TAMPICO        PTCLDY    82  75  78 SE9       30.01R
TOLUCA         TSTM      52  48  87 N5        30.45R
VERACRUZ       MOCLDY    82  75  78 E8        29.99F

SOUTHERN MEXICO

CITY           SKY/WX    TMP DP  RH WIND       PRES   REMARKS
ACAPULCO       TSTM      77  75  94 E5        29.93R
TAPACHULA      CLOUDY    77  73  88 CALM      29.97S
TUX. GUTIERREZ MOCLDY    70  68  94 CALM      30.03S
VILLAHERMOSA   MOCLDY    81  75  83 NE10      29.97R

YUCATAN PENINSULA

CITY           SKY/WX    TMP DP  RH WIND       PRES   REMARKS
CAMPECHE       CLEAR     79  72  78 E14       30.00R
CANCUN         PTCLDY    82  79  89 NE2       30.06S
COZUMEL        PTCLDY    77  77 100 E3        30.05F
MERIDA         PTCLDY    79  72  78 E6        30.05R

$$




USA.gov is the U.S. government's official web portal to all federal, state and local government web resources and services.